Home   Weather   Geretsried   Past weeks

Flag for Germany Past Weather in Geretsried, Bavaria, Germany — Yesterday and Last 2 Weeks

Now
57 °F

Sprinkles. Broken clouds.


Feels Like: 54 °F
Forecast: 53 / 67 °F
Wind: 16 mph from West

Location: Oberpfaffenhofen

Current Time: Jun 29, 2017 at 9:23:49 am

Latest Report: Jun 29, 2017 at 8:20 am


Visibility: N/A

Pressure: 29.53 "Hg (27.47 "Hg at 609m altitude)

Humidity: 88%

Dew Point: 54 °F

Location of GeretsriedLocation

Past Weather in Geretsried — Graph

°F

Geretsried Temperature Yesterday

Maximum temperature yesterday: 77 °F (at 3:50 pm)
Minimum temperature yesterday: 63 °F (at 10:50 am)
Average temperature yesterday: 70 °F

High & Low Weather Summary for the Past Weeks

 TemperatureHumidityPressure
High88 °F (Jun 22, 3:20 pm)94% (Jun 25, 12:20 pm)30.30 "Hg (Jun 25, 12:20 pm)
Low55 °F (Jun 19, 6:50 am)27% (Jun 16, 4:20 pm)29.50 "Hg (Jun 28, 6:50 pm)
Average74 °F54%30.01 "Hg
* Reported Jun 14 8:20 am — Jun 29 8:20 am, Geretsried. Weather by CustomWeather, © 2017

Note: Actual official high and low records may vary slightly from our data, if they occured in-between our weather recording intervals... More about our weather records

Advertising

Geretsried Weather History for the Previous 24 Hours

Scroll right to see more
 ConditionsComfort  
Time TempWeatherWind HumidityBarometerVisibility
8:20 am
Thu, Jun 29
57 °FSprinkles. Broken clouds.16 mph88%29.53 "HgN/A
7:50 am55 °FSprinkles. Broken clouds.15 mph94%29.53 "Hg4 mi
7:20 am55 °FBroken clouds.15 mph94%29.50 "HgN/A
6:50 am55 °FLight rain. Broken clouds.17 mph94%29.50 "HgN/A
6:50 pm
Wed, Jun 28
70 °FScattered clouds.8 mph69%29.50 "HgN/A
6:20 pm72 °FScattered clouds.7 mph65%29.53 "HgN/A
5:50 pm72 °FScattered clouds.10 mph65%29.53 "HgN/A
5:20 pm72 °FScattered clouds.12 mph65%29.53 "HgN/A
4:50 pm75 °FScattered clouds.5 mph47%29.53 "HgN/A
4:20 pm77 °FPassing clouds.5 mph42%29.56 "HgN/A
3:50 pm77 °FPassing clouds.2 mph42%29.56 "HgN/A
3:20 pm75 °FPassing clouds.6 mph44%29.59 "HgN/A
2:50 pm75 °FScattered clouds.3 mph41%29.59 "HgN/A
2:20 pm73 °FScattered clouds.6 mph50%29.59 "HgN/A
1:50 pm73 °FSunny.2 mph53%29.62 "Hg10 mi
1:20 pm72 °FSunny.3 mph53%29.65 "Hg10 mi
12:50 pm70 °FSunny.5 mph60%29.65 "Hg10 mi
12:20 pm70 °FPartly sunny.5 mph64%29.65 "HgN/A
11:50 am68 °FPartly sunny.5 mph69%29.65 "HgN/A
11:20 am66 °FBroken clouds.3 mph68%29.65 "HgN/A
10:50 am63 °FSprinkles. Broken clouds.9 mph83%29.65 "HgN/A
10:20 am68 °FBroken clouds.18 mph64%29.68 "HgN/A
9:50 am68 °FScattered clouds.13 mph73%29.65 "HgN/A
9:20 am68 °FScattered clouds.13 mph69%29.65 "HgN/A
Weather by CustomWeather, © 2017

See weather overviewHow to use our weather pages